Hourly Data Report for March 20, 2020

All times are specified in Local Standard Time (LST). Add 1 hour to adjust for Daylight Saving Time where and when it is observed.

OTTAWA INTL A
ONTARIO
Current Station Operator: NAVCAN

45°19'00.000" N
75°40'00.000" W
114.90 m
6106001
71628
YOW

Download Data

Hourly Data (March 2020)
Hourly Data Report for March 20, 2020
TIME Temp Definition
°C
Dew Point Definition
°C
Rel Hum Definition
%
Wind Dir Definition
10's deg

Wind Spd Definition
km/h
Visibility Definition
km
Stn Press Definition
kPa
Hmdx Definition


Wind Chill Definition


Weather Definition


00:00 2.4 -0.4 82 8 14 24.1 100.02     LegendNANA
01:00 2.1 0.2 88 6 13 16.1 99.89     Rain
02:00 2.0 0.9 93 5 13 9.7 99.71     Rain
03:00 2.3 1.6 96 9 23 4.0 99.34     Rain,Fog
04:00 2.6 2.2 97 8 16 4.8 99.19     Rain,Fog
05:00 3.5 3.2 98 10 16 1.6 99.04     Rain,Fog
06:00 2.9 2.6 98 9 12 0.8 98.90     Rain,Fog
07:00 2.7 2.5 98 4 12 0.6 98.86     Rain,Fog
08:00 3.0 2.7 98 5 12 0.6 98.77     Rain,Fog
09:00 3.8 3.7 99 16 4 0.6 98.65     Rain,Fog
10:00 11.4 11.3 99 20 20 12.9 98.52     Rain
11:00 12.4 12.1 98 20 27 16.1 98.34     LegendNANA
12:00 13.5 12.8 95 21 28 12.9 98.22     LegendNANA
13:00 13.7 12.3 91 22 32 24.1 98.22     Rain
14:00 13.5 8.7 73 25 54 24.1 98.29     LegendNANA
15:00 8.0 4.7 80 29 40 24.1 98.66     LegendNANA
16:00 6.4 2.8 78 29 35 24.1 98.97     Mostly Cloudy
17:00 5.1 0.2 71 29 41 24.1 99.26     LegendNANA
18:00 3.4 -0.9 74 27 38 24.1 99.52     LegendNANA
19:00 1.3 -2.6 75 28 33 24.1 99.80     Mostly Cloudy
20:00 0.2 -4.1 73 28 32 24.1 100.12     Snow Showers
21:00 -1.0 -4.9 75 29 33 24.1 100.33   -8 Snow Showers
22:00 -1.9 -5.6 76 30 27 24.1 100.50   -9 Snow Showers
23:00 -3.3 -9.1 64 31 43 24.1 100.70   -12 LegendNANA

Notes on Data Quality.

Legend

  • E = Estimated
  • M = Missing
  • NA = Not Available*
  • [empty] = Indicates an unobserved value
Date modified: